This demonstration page uses our WeatherBlox Daily Observations layout. Learn more.

Left ArrowRight Arrow

34.74481, -87.66753

Hourly Observations for October 5, 2021

Temp ( °F °C ) Dew Point ( °F °C ) Humidity (%) Winds ( mph kmh ) Pressure ( in mb ) Visibility ( mi km ) Precip ( " mm )
12:08 am 00:08 Clear with Mist and Fog 66 18.9 63 17.2 90 90 Calm 29.99 1016 3 4 0.00 0.00
12:17 am 00:17 Partly Cloudy 67 19.4 63 17.2 87 87 Calm 29.99 1016 10 16 0.00 0.00
12:53 am 00:53 Mostly Cloudy with Mist and Fog 67 19.4 63 17.2 87 87 Calm 29.98 1015 6 10 0.00 0.00
1:53 am 01:53 Mostly Cloudy with Mist and Fog 67 19.4 64 17.8 91 91 Calm 29.98 1015 5 8 0.00 0.00
2:53 am 02:53 Cloudy 68 20 64 17.8 87 87 Calm 29.97 1015 8 13 0.00 0.00
3:53 am 03:53 Cloudy 69 20.6 65 18.3 87 87 Calm 29.96 1015 9 14 0.00 0.00
4:53 am 04:53 Partly Cloudy with Mist and Fog 68 20 64 17.8 87 87 Calm 29.95 1014 5 8 0.00 0.00
5:53 am 05:53 Mostly Cloudy 69 20.6 64 17.8 84 84 ENE 6 9 29.97 1015 10 16 0.00 0.00
6:53 am 06:53 Cloudy with Light Rain 69 20.6 64 17.8 84 84 Calm 29.98 1015 9 14 0.00 0.00
7:53 am 07:53 Mostly Cloudy with Light Rain 69 20.6 65 18.3 87 87 ENE 3 6 30.00 1016 6 10 0.07 1.78
8:07 am 08:07 Cloudy with Rain 69 20.6 65 18.3 87 87 Calm 30.01 1016 3 5 0.04 1.02
8:15 am 08:15 Cloudy with Heavy Rain 69 20.6 65 18.3 87 87 Calm 30.01 1016 2 3 0.08 2.03
8:32 am 08:32 Cloudy with Nearby Thunderstorms 69 20.6 65 18.3 87 87 Calm 30.02 1016 2 2 0.18 4.57
8:41 am 08:41 Cloudy with Heavy Rain 69 20.6 65 18.3 87 87 E 3 6 30.02 1016 2 3 0.22 5.59
8:48 am 08:48 Cloudy with Rain 70 21 64 18 83 83 E 3 6 30.03 1017 3 4 0.24 6.10
8:53 am 08:53 Cloudy with Rain 69 20.6 65 18.3 87 87 ENE 5 7 30.02 1017 3 5 0.26 6.60
9:32 am 09:32 Cloudy with Rain 69 20.6 65 18.3 87 87 Calm 30.03 1017 4 6 0.06 1.52
9:39 am 09:39 Cloudy with Nearby Thunderstorms 69 20.6 66 18.9 90 90 NE 3 6 30.03 1017 3 5 0.07 1.78
9:53 am 09:53 Cloudy with Nearby Thunderstorms 70 21.1 66 18.9 87 87 ENE 5 7 30.02 1017 10 16 0.08 2.03
10:00 am 10:00 Cloudy with Nearby Thunderstorms 71 21.7 66 18.9 84 84 ENE 3 6 30.03 1017 10 16 0.00 0.00
10:13 am 10:13 Cloudy with Nearby Thunderstorms 71 21.7 67 19.4 87 87 ENE 6 9 30.03 1017 10 16 0.00 0.00
10:25 am 10:25 Cloudy 71 21.7 66 18.9 84 84 E 5 7 30.03 1017 10 16 0.00 0.00
10:35 am 10:35 Cloudy 71 21.7 66 18.9 84 84 NE 5 7 30.02 1017 10 16 0.00 0.00
10:53 am 10:53 Cloudy 73 22.8 68 20 84 84 NNE 3 6 30.03 1017 10 16 0.00 0.00
10:56 am 10:56 Cloudy 73 22.8 68 20 84 84 NE 3 6 30.02 1017 10 16 0.00 0.00
11:07 am 11:07 Cloudy 73 22.8 67 19.4 81 81 VRB 5 7 30.02 1017 10 16 0.00 0.00
11:26 am 11:26 Cloudy 75 23.9 67 19.4 76 76 Calm 30.02 1017 10 16 0.00 0.00
11:37 am 11:37 Cloudy 75 23.9 67 19.4 76 76 ENE 3 6 30.01 1016 10 16 0.00 0.00
11:53 am 11:53 Cloudy 76 24.4 67 19.4 74 74 Calm 30.01 1016 10 16 0.00 0.00
12:00 pm 12:00 Cloudy 76 24.4 67 19.4 74 74 Calm 30.01 1016 10 16 0.00 0.00
12:24 pm 12:24 Cloudy 76 24.4 67 19.4 74 74 NNE 3 6 30.00 1016 10 16 0.00 0.00
12:53 pm 12:53 Cloudy with Nearby Thunderstorms 74 23.3 68 20 82 82 NE 7 11 29.99 1016 10 16 0.00 0.00
1:04 pm 13:04 Cloudy with Light Rain 74 23.3 68 20 82 82 NE 7 11 29.99 1016 7 11 0.00 0.00
1:15 pm 13:15 Mostly Cloudy with Nearby Thunderstorms 74 23.3 68 20 82 82 E 6 9 29.98 1015 10 16 0.01 0.25
1:22 pm 13:22 Cloudy with Thunderstorms 74 23.3 67 19.4 79 79 NE 8 13 29.98 1015 9 14 0.01 0.25
1:32 pm 13:32 Cloudy with Strong Thunderstorms 72 22.2 66 18.9 82 82 ESE 9 15 29.97 1015 2 3 0.10 2.54
1:41 pm 13:41 Cloudy with Thunderstorms 70 21.1 65 18.3 84 84 ESE 9 15 29.98 1015 3 5 0.14 3.56
1:48 pm 13:48 Cloudy with Rain 70 21 64 18 83 83 E 6 9 29.98 1015 4 6 0.16 4.06
1:53 pm 13:53 Cloudy with Rain 70 21.1 65 18.3 84 84 ESE 6 9 29.97 1015 5 8 0.18 4.57
2:53 pm 14:53 Cloudy with Light Rain 71 21.7 66 18.9 84 84 E 5 7 29.97 1015 10 16 0.03 0.76
3:44 pm 15:44 Cloudy 72 22.2 66 18.9 82 82 WNW 5 7 29.96 1015 10 16 0.00 0.00
3:53 pm 15:53 Cloudy 71 21.7 66 18.9 84 84 WNW 7 11 29.97 1015 10 16 0.00 0.00
4:03 pm 16:03 Cloudy 71 21.7 65 18.3 81 81 NNW 5 7 29.96 1015 10 16 0.00 0.00
4:20 pm 16:20 Cloudy 72 22.2 66 18.9 82 82 NNE 5 7 29.96 1015 10 16 0.00 0.00
4:53 pm 16:53 Cloudy with Nearby Thunderstorms 71 21.7 66 18.9 84 84 Calm 29.97 1015 10 16 0.02 0.51
5:07 pm 17:07 Cloudy 71 21.7 66 18.9 84 84 W 5 7 29.97 1015 10 16 0.00 0.00
5:15 pm 17:15 Cloudy 70 21.1 66 18.9 87 87 W 8 13 29.98 1015 10 16 0.00 0.00
5:39 pm 17:39 Cloudy with Nearby Thunderstorms 70 21.1 66 18.9 87 87 SW 9 15 29.99 1015 8 13 0.00 0.00
5:44 pm 17:44 Cloudy with Strong Thunderstorms 69 20.6 65 18.3 87 87 SSW 6 9 29.98 1015 2 3 0.05 1.27
5:47 pm 17:47 Cloudy with Strong Thunderstorms 70 21 64 18 83 83 SW 3 6 29.98 1015 1 1 0.14 3.56
5:53 pm 17:53 Cloudy with Thunderstorms 69 20.6 65 18.3 87 87 Calm 29.98 1015 1 1 0.17 4.32
5:59 pm 17:59 Cloudy with Strong Thunderstorms 69 20.6 65 18.3 87 87 Calm 29.98 1015 2 2 0.06 1.52
6:07 pm 18:07 Cloudy with Thunderstorms 69 20.6 65 18.3 87 87 ENE 3 6 29.98 1015 3 5 0.08 2.03
6:14 pm 18:14 Cloudy with Thunderstorms 69 20.6 66 18.9 90 90 Calm 29.98 1015 7 11 0.08 2.03
6:28 pm 18:28 Cloudy with Nearby Thunderstorms 69 20.6 65 18.3 87 87 SSE 8 13 30.00 1016 8 13 0.09 2.29
6:46 pm 18:46 Cloudy with Strong Thunderstorms 68 20 65 18.3 90 90 SSE 9 15 30.00 1016 4 6 0.14 3.56
6:53 pm 18:53 Cloudy with Thunderstorms 68 20 65 18.3 90 90 ESE 7 11 29.99 1016 4 6 0.15 3.81
7:07 pm 19:07 Cloudy with Light Rain 68 20 65 18.3 90 90 ESE 7 11 30.01 1016 9 14 0.02 0.51
7:53 pm 19:53 Cloudy with Heavy Rain 68 20 64 17.8 87 87 S 5 7 30.01 1016 2 3 0.25 6.35
7:56 pm 19:56 Cloudy with Nearby Thunderstorms 67 19.4 64 17.8 91 91 S 6 9 30.01 1016 2 2 0.04 1.02
8:08 pm 20:08 Cloudy with Nearby Thunderstorms 67 19.4 63 17.2 87 87 NE 5 7 30.02 1017 3 5 0.16 4.06
8:20 pm 20:20 Cloudy 68 20 64 17.8 87 87 E 5 7 30.02 1017 10 16 0.16 4.06
8:34 pm 20:34 Cloudy 68 20 64 17.8 87 87 E 3 6 30.03 1017 10 16 0.17 4.32
8:48 pm 20:48 Cloudy with Nearby Thunderstorms 68 20 64 18 88 88 ENE 6 9 30.03 1017 10 16 0.17 4.32
8:53 pm 20:53 Cloudy with Nearby Thunderstorms 68 20 64 17.8 87 87 E 6 9 30.02 1017 10 16 0.17 4.32
9:15 pm 21:15 Cloudy with Nearby Thunderstorms 68 20 64 17.8 87 87 E 7 11 30.05 1018 10 16 0.00 0.00
9:22 pm 21:22 Cloudy with Thunderstorms 68 20 64 17.8 87 87 SE 9 15 30.06 1018 9 14 0.00 0.00
9:30 pm 21:30 Cloudy with Strong Thunderstorms 68 20 64 17.8 87 87 ESE 9 15 30.06 1018 2 2 0.28 7.11
9:42 pm 21:42 Cloudy with Strong Thunderstorms 68 20 65 18.3 90 90 ESE 7 11 30.05 1018 2 3 0.51 12.95
9:50 pm 21:50 Cloudy with Thunderstorms 68 20 64 18 88 88 ENE 7 11 30.06 1018 4 6 0.54 13.72
9:53 pm 21:53 Cloudy with Rain 68 20 64 17.8 87 87 ENE 7 11 30.05 1018 5 8 0.54 13.72
10:53 pm 22:53 Cloudy with Light Rain 67 19.4 63 17.2 87 87 NE 7 11 30.03 1017 10 16 0.04 1.02
11:10 pm 23:10 Cloudy with Nearby Thunderstorms 67 19.4 63 17.2 87 87 ENE 8 13 30.03 1017 5 8 0.06 1.52
11:25 pm 23:25 Cloudy with Light Rain 68 20 64 17.8 87 87 E 8 13 30.02 1017 8 13 0.09 2.29
11:50 pm 23:50 Cloudy 68 20 64 18 88 88 E 3 6 30.02 1017 10 16 0.09 2.29
11:53 pm 23:53 Cloudy 68 20 64 17.8 87 87 E 5 7 30.01 1016 10 16 0.09 2.29

Powered by AerisWeather